Location: Unspecified
(0.0000°N, 0.0000°E)
Time: 19:34:18
(UTC+00:00)

Vanguard 1 - Pass Details

Date: 24 April 2026
Orbit: 654 x 3817 km, 34.2° (Epoch: 18 May)

Event Time Altitude Azimuth Distance (km) Brightness Sun altitude
Rises 22:35:54 0° 294° (WNW) 7,098 14.8 -65.8°
Reaches altitude 10° 22:42:52 10° 310° (NW) 6,501 14.4 -67.2°
Maximum altitude 22:57:37 21° 352° (N) 6,009 14.0 -70.1°
Drops below altitude 10° 23:12:43 10° 34° (NE) 6,604 14.2 -72.7°
Sets 23:19:59 0° 50° (NE) 7,228 14.5 -73.8°
